Flag for U.S.A. Weather past 2 weeks in Cape Canaveral, Florida, U.S.A.

Now
77 °F

Thunderstorms. Clear.


Feels Like: 78 °F
Forecast: 78 / 86 °F
Wind: 5 mph from East

Location: Cape Kennedy

Current Time: Aug 30, 2015 at 6:32:02 AM

Latest Report: Aug 30, 2015 at 5:59 AM


Visibility: 8 mi

Pressure: 29.97 "Hg

Humidity: 94%

Dew point: 75 °F

Location of Cape CanaveralLocation

Historic Weather in Cape Canaveral — Graph

°F

Cape Canaveral temperature yesterday

Maximum temperature yesterday: 92 °F (at 3:58 PM)
Minimum temperature yesterday: 75 °F (at 11:58 PM)
Average temperature yesterday: 81 °F

Past Weeks' High & Low Weather Summary

 TemperatureHumidityPressure
High98 °F (Aug 24, 1:58 PM)95% (Aug 30, 2:58 AM)30.12 "Hg (Aug 30, 2:58 AM)
Low72 °F (Aug 27, 5:58 AM)48% (Aug 24, 12:58 PM)29.88 "Hg (Aug 24, 6:58 PM)
Average83 °F78%30.00 "Hg
* Reported Aug 15 4:58 AM — Aug 30 4:58 AM, Cape Canaveral, Weather by CustomWeather, © 2015

Note: Actual official high and low records may vary slightly from our data, if they occured in-between our weather recording intervals... More about our weather records

Advertising

Cape Canaveral weather history for previous 24 hours

 ConditionsComfort  
Time TempWeatherWind HumidityBarometerVisibility
4:58 AM
Sun, Aug 30
77 °FClear.5 mph94%29.98 "Hg10 mi
3:58 AM76 °FClear.7 mph95%29.99 "Hg10 mi
3:03 AM77 °FClear.6 mph94%30.00 "Hg10 mi
2:58 AM76 °FClear.10 mph95%30.01 "Hg7 mi
2:03 AM75 °FThundershowers. Clear.9 mph89%30.02 "Hg10 mi
1:58 AM74 °FThundershowers. Fog.12 mph92%30.03 "Hg5 mi
1:03 AM75 °FClear.14 mph89%30.06 "Hg9 mi
12:58 AM75 °FClear.13 mph91%30.07 "Hg9 mi
11:58 PM
Sat, Aug 29
75 °FClear.7 mph89%30.09 "Hg10 mi
10:58 PM76 °FThundershowers. Clear.5 mph86%30.05 "Hg10 mi
9:59 PM75 °FClear.No wind83%30.04 "Hg10 mi
9:58 PM76 °FThunderstorms. Clear.No wind85%30.04 "Hg10 mi
9:04 PM79 °FThunderstorms. Clear.15 mph84%30.03 "Hg10 mi
8:58 PM80 °FThunderstorms. Passing clouds.9 mph82%30.04 "Hg10 mi
7:58 PM78 °FThundershowers. Sunny.5 mph79%30.03 "Hg10 mi
6:58 PM78 °FSunny.5 mph76%30.02 "Hg10 mi
5:58 PM87 °FSunny.9 mph73%30.02 "Hg10 mi
4:58 PM90 °FSunny.10 mph70%30.01 "Hg10 mi
3:58 PM92 °FSunny.8 mph66%30.03 "Hg10 mi
2:58 PM91 °FSunny.7 mph67%30.06 "Hg10 mi
1:58 PM91 °FSunny.8 mph66%30.08 "Hg10 mi
12:58 PM91 °FSunny.7 mph67%30.09 "Hg10 mi
11:58 AM90 °FSunny.8 mph70%30.09 "Hg10 mi
10:58 AM89 °FSunny.9 mph74%30.09 "Hg10 mi
9:58 AM87 °FSunny.10 mph84%30.08 "Hg10 mi
8:58 AM84 °FSunny.8 mph92%30.08 "Hg10 mi
7:58 AM77 °FSunny.6 mph90%30.07 "Hg10 mi
6:58 AM75 °FClear.3 mph87%30.05 "Hg10 mi
Weather by CustomWeather, © 2015

See weather overviewHow to use our weather pages